Location: Paul P. Feder Observatory
(46.8670°N, 96.4537°W)
Time: 14:48:15
(UTC-05:00)

Envisat - Visible Passes

Search period start: 01 October 2023 00:00
Search period end: 11 October 2023 00:00
Orbit: 763 x 764 km, 98.2° (Epoch: 01 October)

Date Brightness Start Highest point End Pass type
(mag) Time Alt. Az. Time Alt. Az. Time Alt. Az.
01 Oct 5.2 04:05:03 10° NE 04:08:54 21° E 04:11:24 15° SE visible
01 Oct 3.1 05:43:16 10° N 05:48:13 54° WNW 05:51:34 20° SW visible
02 Oct 3.1 05:05:58 10° NNE 05:11:04 73° ESE 05:13:48 28° S visible
02 Oct 4.5 06:46:09 10° NNW 06:49:30 18° WNW 06:52:49 10° W visible
03 Oct 4.4 04:29:05 10° NNE 04:33:43 34° E 04:36:02 23° SE visible
03 Oct 3.7 06:08:07 10° N 06:12:40 34° WNW 06:16:11 15° WSW visible
04 Oct 5.4 03:52:56 10° NE 03:56:09 17° E 03:58:16 13° ESE visible
04 Oct 2.9 05:30:35 10° N 05:35:39 69° WNW 05:38:25 27° SSW visible
05 Oct 3.5 04:53:24 10° NNE 04:58:25 57° E 05:00:39 31° SSE visible
05 Oct 4.2 06:33:10 10° NNW 06:37:01 22° WNW 06:40:48 10° WSW visible
06 Oct 4.8 04:16:42 10° NE 04:21:00 27° E 04:22:53 22° SE visible
06 Oct 3.4 05:55:21 10° N 06:00:07 43° WNW 06:03:02 22° SW visible
07 Oct 5.7 03:41:06 10° ENE 03:43:21 13° E 03:45:05 11° ESE visible
07 Oct 2.9 05:17:55 10° NNE 05:23:02 88° WNW 05:25:15 35° SSW visible
07 Oct 4.7 06:58:37 10° NNW 07:01:17 14° NW 07:03:55 10° W visible
08 Oct 3.9 04:40:53 10° NNE 04:45:44 44° E 04:47:28 33° SE visible
08 Oct 3.9 06:20:17 10° N 06:24:31 27° WNW 06:27:38 15° WSW visible
09 Oct 5.1 04:04:23 10° NE 04:08:15 21° E 04:09:41 19° ESE visible
09 Oct 3.1 05:42:36 10° N 05:47:34 54° WNW 05:49:51 30° SW visible
10 Oct 3.1 05:05:18 10° NNE 05:10:24 73° ESE 05:12:03 43° S visible
10 Oct 4.5 06:45:29 10° NNW 06:48:49 18° WNW 06:52:09 10° W visible
